Overview Statistics Trail Chart Weather Telemetry Raw packets
 

This is the latest recevied weather packets stored in our database for station/object N4UUJ-1. If no packets are shown the sender has not sent any weather packets the latest 10 day(s).

<< 1 2 3 4 5 6 7 >>
Time Temp. Humidity Pressure Rain* Wind** Luminosity Snow
1788488715 23.33° C 75% 1021.1 hPa 0 mm - - -
1788486914 24.44° C 75% 1021 hPa 0 mm - - -
1788485113 24.44° C 75% 1020.5 hPa 0 mm - - -
1788483312 25° C 75% 1020.3 hPa 0 mm - - -
1788481511 26.11° C 75% 1019.8 hPa 0 mm - - -
1788479732 29.44° C 75% 1019.4 hPa 0 mm - - -
1788477909 29.44° C 75% 1019.4 hPa 0 mm - - -
1788476108 30° C 75% 1019.5 hPa 0 mm - - -
1788474307 31.11° C 75% 1019.4 hPa 0 mm - - -
1788472506 31.67° C 75% 1019.3 hPa 0 mm - - -
1788470705 32.22° C 75% 1019.3 hPa 0 mm - - -
1788468904 32.78° C 75% 1019.7 hPa 0 mm - - -
1788467103 32.78° C 75% 1020 hPa 0 mm - - -
1788465302 33.89° C 75% 1020.2 hPa 0 mm - - -
1788463501 31.11° C 75% 1020.7 hPa 0 mm - - -
1788461700 33.89° C 75% 1020.9 hPa 0 mm - - -
1788459899 30.56° C 75% 1021.1 hPa 0 mm - - -
1788458098 32.78° C 75% 1021.4 hPa 0 mm - - -
1788456297 32.78° C 75% 1021.6 hPa 0 mm - - -
1788454496 32.78° C 75% 1022 hPa 0 mm - - -
1788452695 33.33° C 75% 1022.1 hPa 0 mm - - -
1788450894 32.22° C 75% 1022.3 hPa 0 mm - - -
1788449093 31.67° C 75% 1022.4 hPa 0 mm - - -
1788447292 30.56° C 75% 1022.2 hPa 0 mm - - -
1788445491 30° C 75% 1022.2 hPa 0 mm - - -

* Rain latest hour (hover to see other rain measurements)
** Current wind speed in m/s (hover to see current wind gust speed)